Theta_e
306 305 305 304 303 302 301 300 298 297 296 295 295 295 296 295 294 293 292 291 290 290 289 289 289 288 288 287 287 286 286 286 285 285 284 284 284 284 284 284 284 284 284
305 305 304 304 303 302 301 299 298 296 294 294 294 294 294 293 292 291 290 290 289 288 288 288 288 287 286 286 286 285 284 284 283 283 282 282 282 282 282 282 282 282 283
305 305 304 303 302 301 300 298 296 294 293 293 293 293 293 292 291 290 289 289 288 288 287 287 286 286 286 285 285 283 282 282 281 281 280 280 280 280 281 281 281 282 282
305 304 304 303 301 300 298 296 295 293 292 292 291 291 290 290 289 289 290 289 288 286 286 285 285 285 284 283 282 282 281 281 281 280 279 278 278 279 279 279 281 281 281
304 303 303 301 300 298 297 296 294 292 291 290 289 289 288 288 287 289 290 286 285 285 285 284 283 282 281 281 281 280 280 280 279 279 278 278 278 278 278 278 278 278 279
302 301 300 299 298 297 296 294 292 291 290 289 288 287 287 286 288 287 285 285 284 284 283 282 281 281 280 280 280 279 279 278 278 277 277 277 277 276 276 276 275 275 275
301 301 300 298 297 296 295 293 292 290 289 287 287 286 286 286 290 287 284 284 283 282 281 280 280 280 280 279 278 278 277 277 277 276 276 275 275 274 274 274 274 273 273
300 300 300 299 297 295 293 292 290 288 287 286 286 285 285 288 286 287 283 282 281 281 280 279 279 279 279 278 277 277 277 276 276 276 275 274 273 273 273 272 272 272 273
299 299 299 298 295 293 292 290 289 287 286 285 284 284 286 286 286 287 282 281 280 279 279 279 278 277 277 277 277 276 276 276 275 274 274 273 272 272 272 272 272 272 273
299 299 298 296 294 292 290 289 288 286 285 284 283 285 285 285 284 282 280 279 279 279 278 277 278 277 277 277 276 276 276 275 275 274 273 273 273 272 272 271 271 270 269
299 298 297 295 292 291 289 288 287 286 284 283 284 284 284 282 281 282 279 279 279 278 278 277 276 276 276 276 276 275 274 274 273 273 273 273 272 272 271 270 270 269 268
299 298 296 293 291 289 288 287 285 284 284 284 284 283 282 281 281 279 279 278 278 278 277 276 276 276 276 275 274 274 273 273 272 272 272 272 272 271 270 269 269 268 267
297 296 294 291 289 288 286 285 284 284 284 284 283 283 282 280 278 278 278 278 278 277 277 276 275 275 274 273 273 273 272 272 272 271 271 271 270 269 269 268 268 268 267
296 294 292 289 288 286 285 284 284 284 284 283 283 283 280 278 277 277 277 277 277 276 276 275 275 274 273 273 273 272 271 271 271 270 270 270 269 268 268 268 268 268 267
294 291 289 288 286 285 285 285 284 284 284 283 283 279 278 278 277 277 277 276 276 276 275 275 274 273 273 272 272 271 270 270 270 270 270 269 269 268 268 267 267 266 266
292 290 288 287 285 285 284 283 282 282 282 282 278 277 277 277 277 277 277 276 276 275 274 273 273 273 272 271 271 270 270 270 269 269 269 269 268 267 267 266 266 265 264
290 289 287 286 285 284 283 282 282 281 281 279 278 277 277 276 276 276 276 276 275 275 274 273 272 272 272 271 271 270 270 269 269 268 268 268 268 267 266 266 265 264 264
288 287 286 285 284 283 283 282 282 283 281 279 278 277 277 276 276 276 276 276 275 274 273 272 272 272 272 271 271 270 269 268 268 268 267 267 267 266 266 265 264 264 263
286 285 284 283 283 283 283 282 282 280 278 278 277 278 277 276 275 276 275 275 274 273 273 272 272 272 272 271 271 270 269 268 268 268 267 267 266 266 265 264 264 263 263
284 284 284 283 282 282 282 282 280 277 277 277 277 276 276 276 276 276 275 274 274 273 273 273 272 272 272 272 271 270 268 267 267 267 267 266 266 265 265 264 263 263 262
284 283 282 282 282 283 282 281 279 277 277 277 277 276 276 276 276 275 274 274 274 274 274 273 273 273 272 272 271 270 268 267 267 267 266 266 265 265 264 264 263 263 262
283 283 283 283 283 283 281 279 278 277 277 277 277 276 276 276 276 275 275 275 274 275 274 274 273 273 272 272 271 270 268 267 267 266 266 266 265 264 264 263 263 263 263
282 283 283 283 283 281 279 278 277 277 277 277 276 276 276 276 275 275 275 275 275 275 274 274 274 273 272 271 271 270 269 267 267 266 266 265 265 264 264 264 263 263 263
283 283 283 283 281 280 279 278 278 277 277 277 276 276 276 276 275 275 275 275 275 275 274 274 274 273 272 271 271 270 269 268 267 266 266 265 265 264 264 264 263 263 263
283 283 283 281 281 280 279 278 278 277 277 276 276 276 276 275 275 275 275 275 275 275 274 274 274 273 272 272 271 270 269 268 267 266 266 266 265 265 264 264 263 263 263
284 283 282 281 280 280 278 278 278 277 277 277 276 276 275 275 275 275 275 275 275 275 274 274 273 273 272 272 271 270 269 268 267 266 266 266 265 265 264 264 263 263 263
Wind_Speed
12 11 12 13 13 14 14 14 14 14 14 13 12 11 11 10 10 9 8 7 7 6 5 5 6 7 8 9 11 11 11 10 10 12 14 16 19 20 21 23 25 25 23
14 14 14 15 15 15 15 15 15 14 13 13 12 12 11 10 9 8 7 6 5 5 5 6 7 8 8 9 10 11 12 12 14 15 16 20 21 23 23 23 22 23 24
17 17 17 17 16 17 16 15 15 14 13 13 13 12 11 10 8 6 5 5 5 7 7 7 8 9 9 10 11 12 12 14 15 18 19 20 20 23 25 25 26 25 24
18 19 20 20 19 17 17 16 15 14 13 12 11 10 9 8 6 5 5 6 6 5 5 6 7 8 10 11 11 12 14 14 15 16 18 22 24 26 28 32 30 29 29
18 21 21 21 20 18 17 16 14 13 12 11 10 9 8 6 4 4 6 6 5 6 5 5 7 7 10 13 13 14 16 17 18 19 21 22 26 28 31 32 34 37 34
17 20 21 21 20 18 17 15 14 13 12 12 10 8 6 4 4 6 5 5 6 6 6 5 7 9 10 12 14 16 17 17 18 19 21 23 24 27 28 31 35 39 42
15 18 21 21 20 19 17 15 14 14 13 11 10 8 7 7 9 6 5 6 5 6 6 6 6 8 11 12 13 13 15 17 18 19 20 22 24 26 29 30 31 32 34
18 19 21 23 22 20 18 15 14 13 12 11 11 10 9 9 6 6 5 6 5 5 5 5 6 8 10 11 12 13 14 16 18 19 19 20 22 25 27 28 30 32 34
22 21 21 23 23 21 18 16 15 14 14 13 13 11 10 9 6 6 5 6 5 4 4 6 7 8 11 12 12 12 13 14 16 17 19 20 21 23 26 27 29 32 36
22 22 21 22 23 20 17 16 15 14 14 15 14 13 12 8 5 4 5 5 4 4 4 6 9 9 11 12 12 13 13 15 16 16 18 20 21 22 23 25 27 28 30
23 22 23 22 22 20 19 18 16 16 17 17 16 13 11 9 8 7 3 4 3 4 4 5 6 8 11 12 13 13 15 16 16 17 18 19 19 20 20 21 23 25 26
23 24 24 23 23 22 21 19 20 19 18 17 15 14 12 12 10 7 3 2 3 4 4 4 6 8 10 13 14 16 16 16 16 17 18 19 21 21 21 21 21 20 20
25 25 24 23 24 23 22 22 21 20 18 17 17 16 15 13 10 6 5 3 3 4 5 5 7 8 10 12 14 15 16 16 17 17 18 20 21 23 23 21 20 19 18
27 25 24 25 24 23 23 23 21 20 19 19 18 15 14 12 10 8 6 4 4 5 5 6 7 9 10 12 14 15 15 16 17 18 18 19 20 21 23 25 25 26 27
26 25 25 26 25 25 24 22 20 18 17 15 14 14 12 11 10 8 5 5 6 5 6 6 7 9 10 12 13 15 16 17 17 18 18 20 21 21 23 24 25 26 27
28 27 28 27 27 25 23 23 21 18 18 18 17 15 14 12 10 8 7 7 6 5 5 6 7 9 10 12 13 15 16 17 17 18 19 21 22 23 23 23 24 25 27
29 27 28 29 27 26 26 26 26 24 22 19 17 15 13 11 11 10 10 7 7 7 6 7 8 10 11 12 14 15 17 17 18 18 19 20 21 23 24 24 24 25 26
29 27 27 27 27 26 27 27 25 24 21 20 20 17 15 14 13 13 11 8 9 8 8 8 10 11 12 14 15 16 17 18 18 19 19 20 21 22 23 23 24 24 26
28 27 26 26 25 26 27 26 23 20 17 16 15 15 14 13 14 13 12 8 10 9 9 10 11 13 14 15 16 17 18 18 18 19 19 19 20 21 21 21 22 21 25
25 25 25 25 26 27 27 27 24 23 21 18 16 15 15 15 14 12 12 11 10 10 11 11 13 14 16 17 18 18 17 17 18 18 18 19 20 21 21 21 21 21 24
25 25 25 27 28 29 29 27 25 23 21 19 16 17 17 16 14 15 13 12 12 12 12 13 14 15 17 18 18 18 17 17 18 18 18 18 19 19 19 19 19 19 23
24 26 29 30 30 30 27 25 23 22 21 20 19 20 19 17 15 13 14 13 13 13 14 15 15 16 17 18 19 18 17 16 17 17 17 17 17 18 18 18 17 18 21
26 28 30 30 29 27 26 25 25 24 22 21 21 21 20 16 14 14 14 13 14 14 15 16 16 16 17 18 19 18 17 16 17 16 17 16 16 16 17 16 15 17 20
29 30 31 30 29 29 28 26 24 23 22 23 22 21 20 17 16 15 14 15 15 15 16 16 16 16 17 18 19 19 17 17 16 17 17 16 16 16 15 15 14 16 19
31 31 31 30 30 29 28 26 25 24 24 23 22 21 20 18 17 16 16 16 16 17 17 17 17 17 18 18 19 18 17 17 16 16 17 16 15 15 14 13 13 15 16
31 31 31 30 30 29 27 26 26 25 24 23 22 21 20 19 18 17 17 18 18 18 18 18 18 18 18 18 18 18 18 17 16 16 16 15 14 13 13 11 13 16 15
Wind_Direction
279 288 296 301 302 301 298 294 293 290 288 286 286 284 282 283 285 291 298 306 308 302 304 307 310 318 323 328 332 333 331 331 328 325 326 328 327 331 333 336 336 337 339
283 281 290 294 295 294 292 292 291 289 286 284 283 283 285 285 285 288 296 301 299 307 308 310 307 314 324 331 335 337 338 340 340 338 336 336 336 337 337 337 338 340 341
276 274 281 286 291 293 288 285 283 283 282 281 279 279 280 283 288 294 302 314 314 307 305 308 315 323 330 337 342 342 343 345 346 343 339 338 339 341 342 343 343 343 345
274 280 281 278 279 281 281 281 282 282 281 282 286 290 290 289 285 276 290 296 290 286 294 311 321 328 336 340 342 345 343 347 343 339 343 346 344 345 344 342 340 340 344
272 272 274 275 275 277 277 279 280 279 276 274 272 271 272 271 267 275 287 281 284 289 302 315 325 337 346 348 348 347 346 349 350 349 345 346 343 343 345 345 340 338 343
277 275 271 269 270 271 273 274 274 271 268 267 267 268 274 273 291 299 283 280 287 298 311 334 348 347 341 346 350 349 345 346 347 349 346 345 344 342 344 344 341 341 341
296 287 278 271 268 269 267 266 266 264 263 260 258 259 256 264 294 274 270 278 289 307 329 344 343 348 354 357 351 348 348 347 348 347 346 345 344 343 342 340 339 337 337
288 281 274 267 262 260 258 258 257 255 252 249 246 242 243 270 259 263 272 286 304 314 329 338 352 356 348 1 354 351 349 347 345 344 345 345 344 341 339 338 337 334 337
289 283 271 263 257 254 252 250 247 245 242 237 234 235 250 255 232 255 299 296 300 312 330 338 344 354 349 358 350 346 345 343 343 346 348 346 342 338 335 336 338 341 341
287 282 271 260 252 247 245 244 242 238 234 234 231 240 242 237 246 276 284 277 289 311 324 331 337 349 338 343 343 341 342 343 345 346 344 341 339 337 338 341 344 348 346
277 275 268 256 247 241 237 235 233 229 228 228 235 234 227 231 247 269 265 270 286 301 312 322 324 336 331 333 339 346 349 346 345 344 342 339 335 337 344 349 350 349 345
272 269 261 250 241 234 231 227 224 224 223 226 225 217 218 227 248 261 258 270 291 295 301 311 318 321 324 333 345 346 343 343 344 343 342 340 339 342 349 352 352 351 347
267 263 253 242 235 230 228 224 220 221 220 221 213 214 220 227 235 242 274 287 295 295 301 306 307 321 333 340 340 338 340 340 341 343 344 344 344 343 346 349 349 349 350
261 256 247 238 232 226 223 223 222 219 214 214 216 217 218 221 226 233 257 290 292 286 284 298 317 326 333 334 334 335 336 338 342 344 343 343 344 344 345 347 348 347 346
256 249 240 234 228 224 226 226 219 214 214 216 219 221 222 224 228 229 246 267 268 266 291 307 317 326 330 330 331 334 336 339 339 338 339 341 343 345 347 347 346 345 350
250 244 237 231 227 226 221 211 205 203 205 210 207 213 216 221 234 246 249 241 237 270 294 302 311 320 326 328 330 331 331 332 334 335 337 339 341 343 347 348 346 346 348
245 239 233 229 226 222 212 207 199 198 206 208 212 215 221 224 234 248 264 267 286 291 292 301 311 318 323 325 327 327 327 329 332 333 335 336 339 341 343 345 345 344 348
242 239 233 230 225 217 210 205 204 209 205 206 208 214 219 226 234 242 250 260 272 277 288 302 311 316 320 323 325 326 325 326 329 331 332 334 336 338 340 342 344 345 348
235 230 225 223 220 211 206 203 206 206 205 207 203 214 218 222 236 244 253 258 265 279 294 303 309 312 317 321 323 323 321 319 321 323 327 330 333 334 338 339 341 346 347
225 223 220 215 207 203 201 203 203 203 208 212 214 216 224 232 240 252 258 264 275 287 296 301 305 310 314 316 317 316 314 314 315 319 325 328 330 331 335 337 341 345 350
217 213 207 202 199 199 202 204 206 209 214 219 220 226 232 237 241 250 258 269 276 285 294 299 302 305 307 310 311 311 311 311 311 315 320 323 326 327 332 334 337 343 346
208 203 197 196 196 200 204 206 208 213 217 221 224 231 238 241 246 254 260 267 276 288 292 293 295 298 301 305 308 309 308 308 306 311 314 319 323 324 328 331 332 338 345
200 196 195 196 199 202 203 207 211 215 220 225 230 234 241 247 248 254 263 270 279 285 286 289 290 293 298 304 306 306 305 303 304 307 309 316 322 323 324 326 327 336 344
194 195 197 199 202 204 208 212 216 221 225 228 232 238 243 248 253 261 268 272 279 282 284 286 287 292 297 302 303 301 299 299 303 304 307 313 319 321 322 321 323 335 342
195 198 201 203 206 209 212 215 220 225 228 231 236 240 244 249 255 263 268 273 279 281 283 283 285 288 294 298 301 298 296 296 299 300 303 309 315 318 317 316 320 332 339
201 204 206 208 211 214 218 222 226 229 232 235 239 242 245 251 257 262 268 274 280 281 282 283 283 285 289 296 298 296 293 292 295 296 298 305 311 313 310 311 320 330 336